www.pogodaiklimat.ru

Погода и климат >> Архив погоды >> Россия >> Иркутская область >> Инга


АРХИВ ПОГОДЫ в Инге

Время (UTC), дата Ветер
(напр.,м/с)
 
Видим.   Явления Облачность Т
(С)
Тd
(С)
f
(%)
Тe
(С)
Тes
(С)
Комфортность P
(гПа)
Po
(гПа)
Тmin
(С)
Tmax
(С)
R
(мм)
R24
(мм)
S
(см)
12 12.06 В 2 50 км 1/0
[Ci fib]
+21.8 +9.6 46 +23 +24 комфорт 1010.2 949.3 +23.8
15 12.06 штиль 0 н/о 1/0
[Ci fib]
+12.6 +10.3 86 +12 +12 1012.3 949.3
18 12.06 штиль 0 н/о 1/0
[Ci fib]
+8.4 +7.3 93 +7 +7 1013.3 949.3
21 12.06 штиль 0 50 км 3/0
[Ci sp]
+5.5 +4.6 94 +4 +4 1013.6 948.9
00 13.06 штиль 0 50 км 1/0
[Ci fib]
+14.2 +9.3 72 +14 +19 1011.0 948.4 +4.7
03 13.06 СВ 2 50 км 6/0
[Ci fib]
+22.2 +13.2 57 +25 +37 комфорт 1007.4 946.7
06 13.06 СВ 2 50 км 6/0
[Ci fib]
+26.2 +11.5 40 +27 +42 жарко 1004.2 944.5
09 13.06 В 2 50 км 8/0
[Ci fib]
+28.1 +11.2 35 +29 +36 жарко 1002.0 942.7
12 13.06 штиль 0 50 км 10/3 600 м
[Cb cap Ci fib]
+24.3 +14.8 55 +27 +28 жарко 1002.2 942.4 +28.4
15 13.06 штиль 0 н/о 8/4 600 м
[Cb cap Ci fib]
+14.7 +13.1 90 +14 +14 1004.1 942.1
18 13.06 штиль 0 н/о 10/6 600 м
[Cb cap Ci fib]
+13.2 +11.9 92 +13 +13 1003.4 941.2
21 13.06 штиль 0 50 км 10/6 600 м
[Cb cap Ci fib]
+12.3 +11.2 93 +12 +12 1002.6 940.2
00 14.06 ЮЗ 2 50 км 6/0
[Ci fib]
+16.7 +9.4 62 +17 +21 1002.1 940.5 +11.5
03 14.06 штиль 0 50 км 10/8 600 м
[Cb cap Ac trans Ci fib]
+21.6 +12.5 56 +24 +26 комфорт 999.4 939.7
06 14.06 штиль 0 50 км 10/10 600 м
[Cb cap]
+20.8 +13.5 63 +23 +23 комфорт 999.6 939.2
09 14.06 штиль 0 50 км 10/10 600 м
[Cb cap]
+20.7 +13.6 64 +23 +23 комфорт 999.5 939.0
12 14.06 штиль 0 50 км 10/10 600 м
[Cb cap]
+19.0 +13.8 72 +20 +20 1000.1 939.3 +22.2
15 14.06 штиль 0 н/о в посл. час ливневой дождь 10/10 600 м
[Cb cap]
+16.0 +14.4 90 +16 +16 1002.2 940.6
18 14.06 штиль 0 н/о {ливн. осадки} 10/10 600 м
[Cb cap]
+14.4 +13.0 91 +14 +14 1002.6 940.6
21 14.06 штиль 0 50 км 10/10 600 м
[Cb cap]
+14.2 +12.9 92 +14 +14 1002.6 940.6
00 15.06 штиль 0 50 км 10/10 600 м
[Cb cap]
+15.0 +13.0 88 +15 +15 1002.8 941.0 +14.1 0.4
03 15.06 З 2 50 км 10/10 600 м
[Cb cap]
+17.4 +13.5 78 +18 +18 1002.7 941.4
06 15.06 З 2 50 км {ливн. осадки} 10/10 600 м
[Cb cap]
+17.6 +13.0 74 +18 +18 1002.8 941.5
09 15.06 СЗ 2 50 км 10/10 600 м
[Cb cap]
+17.4 +12.2 72 +18 +18 1002.6 941.2
12 15.06 З 2 50 км 10/10 600 м
[Cb cap]
+16.0 +12.2 78 +16 +16 1003.3 941.5 +17.8 0.1
15 15.06 ЮВ 2 н/о слаб. ливневой дождь 10/10 600 м
[Cb cap]
+15.4 +14.0 91 +15 +15 1003.7 941.9
18 15.06 З 2 н/о ливневой дождь 10/10 600 м
[Cb cap]
+15.0 +14.2 95 +15 +15 1003.7 941.8
21 15.06 ЮЗ 2 50 км в посл. час ливневой дождь 10/10 600 м
[Cb cap]
+15.0 +13.9 93 +15 +15 1003.6 941.7
00 16.06 З 2 20 км {ливн. осадки} 10/10 600 м
[Cb cap]
+16.3 +14.6 90 +16 +16 1003.6 942.1 +14.8 13
03 16.06 штиль 0 50 км 10/10 600 м
[Cb cap]
+17.6 +15.2 86 +18 +18 1004.2 942.8
06 16.06 СВ 2 50 км 10/4 600 м
[Cb cap Ci fib]
+22.0 +14.9 64 +25 +33 комфорт 1002.5 942.1
09 16.06 В 2 50 км 10/6 600 м
[Cb cap Ci fib]
+23.6 +14.3 56 +26 +29 жарко 1000.8 940.8
12 16.06 штиль 0 50 км 10/1 600 м
[Cb cap Cc]
+23.3 +14.7 58 +27 +28 душно 1000.8 940.8 +24.1
15 16.06 штиль 0 н/о 10/0
[Ac trans Cs]
+16.3 +15.1 93 +16 +16 1003.0 941.5
18 16.06 штиль 0 н/о 10/0
[Ac trans Ci fib]
+14.1 +13.0 93 +14 +14 1003.6 941.5
21 16.06 штиль 0 500 м туман 10/0
[Ci fib]
+12.5 +12.1 97 +12 +12 1003.3 940.8
00 17.06 ЮЗ 2 50 км {туман} 10/0
[Ac trans Cc]
+15.2 +15.0 99 +15 +17 1002.3 940.6 +12.2
03 17.06 Ю 2 50 км 10/1 1000 м
[Cu hum Ac trans Ci sp]
+22.5 +14.4 60 +26 +32 жарко 1000.7 940.5
06 17.06 С 2 50 км гроза без осадков 10/3 600 м
[Cb cap Ci fib]
+26.3 +12.3 42 +28 +37 жарко 1000.0 940.5
09 17.06 З 2 50 км в посл. час гроза 10/5 600 м
[Cb cap Ac As Ci sp]
+20.5 +14.7 69 +24 +26 комфорт 1002.3 941.6
12 17.06 СЗ 4-10
{12}
50 км {гроза, ливн. осадки} 10/10 600 м
[Cb cap]
+16.0 +11.6 75 +15 +15 1008.9 946.8 +27.8 0.3
15 17.06 З 2 н/о слаб. ливневой дождь 10/10 600 м
[Cb cap]
+12.6 +10.7 88 +12 +12 1013.6 950.5
18 17.06 З 2 н/о слаб. ливневой дождь 10/10 600 м
[Cb cap]
+10.6 +9.6 94 +9 +9 1017.3 953.5
21 17.06 ЮЗ 2 50 км {ливн. осадки} 10/10 600 м
[Cb cap]
+9.7 +8.5 92 +8 +8 1018.9 954.8
00 18.06 Ю 2 50 км в посл. час ливневой дождь 10/10 600 м
[Cb cap]
+10.1 +8.9 92 +8 +8 1019.9 955.9 +9.6 6
03 18.06 штиль 0 50 км 8/6 600 м
[Cb cap]
+15.4 +9.4 67 +15 +21 1018.5 955.6
06 18.06 штиль 0 50 км 10/10 600 м
[Cb cap]
+16.5 +7.8 56 +16 +16 1017.3 954.8
09 18.06 штиль 0 50 км 8/8 600 м
[Cb cap]
+18.6 +9.3 55 +19 +21 1014.9 953.0
12 18.06 штиль 0 50 км ясно +18.0 +9.2 56 +18 +19 1014.4 952.4 +18.6
15 18.06 штиль 0 н/о ясно +8.7 +7.6 93 +8 +8 1016.5 952.4
18 18.06 штиль 0 н/о ясно +5.4 +4.5 94 +4 +4 1026.5 951.5
21 18.06 штиль 0 50 км ясно +5.5 +4.8 95 +4 +4 1015.1 950.3
00 19.06 штиль 0 500 м туман ясно +7.8 +7.4 97 +7 +12 1013.9 949.7 +4.4
03 19.06 СВ 2 50 км 1/0
[Ci fib]
+18.5 +11.2 62 +19 +33 опасность
простуды
1009.7 948.1
06 19.06 В 2 50 км 1/1 1000 м
[Cu med, cong]
+22.4 +12.4 53 +25 +40 комфорт 1006.5 945.9

 

Местоположение метеостанции Инга (Иркутская область, Россия): широта 52.97 долгота 101.90 высота над уровнем моря 543 м.

В архиве по умолчанию представлена погода в Инге за последнюю неделю. Архивные данные за месяц целиком и за предыдущие месяцы, начиная с января 2011 года, Вы можете получить, выбрав интересующий диапазон дат из раскрывающегося списка и нажав кнопку "Ввод!".


*Определитесь, кто Вы:
робот инопланетянин человек

Внимание! Время в таблицах - всемирное. Для получения местного времени необходимо прибавить поправку, которая равна 8 ч.

Смотрите также архив погоды в соседних городах и на ближайших метеорологических станциях:

Погода в Сараме (Иркутская область, Россия) (63 км)
Погода в Заларях (Иркутская область, Россия) (76 км)
Погода в Черемхово (Иркутская область, Россия) (77 км)
Погода в Зиме (Иркутская область, Россия) (107 км)
Погода в Дабадах (Иркутская область, Россия) (111 км)
Погода в Балаганске (Иркутская область, Россия) (136 км)
Погода в Ангарск (Иркутская область, Россия) (139 км)
Погода в Тунке (Бурятия, Россия) (144 км)
Погода в Кырене (Бурятия, Россия) (144 км)
Погода в Орлике (Бурятия, Россия) (150 км)

Пояснения к столбцам:

Ветер - указаны скорость ветра в м/с - средняя за 10 мин, порывы в срок и между сроками (в фигурных скобках) и направление, откуда дует ветер: С - северный, СВ - северо-восточный, В - восточный, ЮВ - юго-восточный, Ю - южный, ЮЗ - юго-западный, З - западный, СЗ - северо-западный.
Видимость - горизонтальная дальность видимости в метрах или километрах. При видимости от 1 до 10 км при отсутствии осадков обычно наблюдается дымка, при ухудшении видимости до 1 км и менее - туман. В сухую погоду видимость может ухудшаться дымом, пылью или мглою.
Явления - указаны атмосферные явления, наблюдавшиеся в срок или в последний час перед сроком; фигурными скобками обозначены явления, наблюдавшиеся между сроками (за 1-3 часа до срока); квадратными скобками обозначены град или гололедные отложения с указанием их диаметра в мм.
Облачность - указаны через наклонную черту общая и нижняя облачность в баллах и высота нижней границы облаков в метрах; квадратными скобками обозначены формы облаков: Ci - перистые, Cs - перисто-слоистые, Cc - перисто-кучевые, Ac - высококучевые, As - высокослоистые, Sc - слоисто-кучевые, Ns - слоисто-дождевые, Cu - кучевые, Cb - кучево-дождевые. Подробнее классификацию облаков см. в Атласе облаков (PDF).
T - Температура воздуха - температура, измеренная на высоте 2 м над землей.
Td - Температура точки росы - температура, при понижении до которой содержащийся в воздухе водяной пар достигнет насыщения.
f - Относительная влажность воздуха - влажноcть воздуха, измеренная на высоте 2 м над землей.
Te - Эффективная температура - температура, которую ощущает одетый по сезону человек в тени. Характеристика душности погоды. При расчете учитывается влияние влажности воздуха и скорости ветра на теплоощущения человека.
Tes - Эффективная температура на солнце - температура, которую ощущает человек, с поправкой на солнечный нагрев. Характеристика знойности погоды. Зависит от высоты солнца над горизонтом, облачности и скорости ветра. Ночью, в пасмурную погоду, а также при ветре 12 м/с и более поправка равна нулю.
P - Атмосферное давление - приведенное к уровню моря атмосферное давление.
Po - Атмосферное давление - измеренное на уровне метеостанции атмосферное давление.
Tmin - Минимальная температура - минимум температуры воздуха на высоте 2 м над землей.
Tmax - Максимальная температура - максимум температуры воздуха на высоте 2 м над землей.
R - Количество осадков - Количество выпавших осадков за период времени, мм. При наведении курсора мыши на число - период времени, за который выпало указанное количество осадков.
R24 - Количество осадков - Количество выпавших осадков за 24 часа, мм.
S - Снежный покров - Высота снежного покрова, см. При наведении курсора мыши на число - состояние снежного покрова и степень покрытия местности в баллах.